Погода в Нарите

Япония     35°48′14″N   140°20′44″E
темп.,
°C
ветер,
м/с
пор.,
м/с
влажн.,
%
обл.,
%
осадки,
мм/ч
давл.,
гПа
погр.,
м
11 апреля, вс
вс1100:00+10ссв245194 0.0 1033181
03:00+9с23563 0.0 1033126
06:00+9ссв24582 0.0 1035176
09:00+13всв22421 0.0 10351394
12:00+17в113143 0.0 10332100
15:00+16вюв423873 0.0 10321937
18:00+14вюв44454 0.0 10331174
21:00+12вюв35535 0.0 1035961
12 апреля, пн
пн1200:00+12всв12555 0.0 103572
03:00+11в12585 0.0 103457
06:00+11в13595 0.0 1035113
09:00+15вюв23438 0.0 10341570
12:00+17юв433423 0.0 10322181
15:00+17юв543518 0.0 10301909
18:00+14юв45438 0.0 10311407
21:00+13ююв255022 0.0 10321061
13 апреля, вт
вт1300:00+12юв125599 0.0 103083
03:00+13ююв1456100 0.0 1028179
06:00+13ю2761100 0.1 1026483
09:00+16ююв5853100 0.1 10241418
12:00+17ю61060100 0.4 10201461
15:00+17ю61060100 0.6 10171389
18:00+16ююз51173100 0.1 10171199
21:00+16ю51284100 0.3 10161122
14 апреля, ср
ср1400:00+16ю51285100 0.1 10131074
03:00+16ююз5138677 0.1 1011865
06:00+17ююз51188100 0.1 1010849
09:00+18ююз41084100 0.2 1009834
12:00+20юз6868100 0.3 1006949
15:00+17зюз3689100 4.3 1004492
18:00+14св71389100 14.6 1006811
21:00+10ссв71377100 20.8 10111091
15 апреля, чт
чт1500:00+8ссв81363100 1.0 1013920
03:00+7св6115851 1.5 1016894
06:00+6ссв510511 0.0 1019705
09:00+10ссв57330 0.0 10211181
12:00+13всв55260 0.0 10201535
15:00+13всв44300 0.0 10201485
18:00+11всв454121 0.0 10221078
21:00+10в35515 0.0 1024906